Tracking 17694 objects as of 30-May-2016
HD Live streaming from Space Station
objects crossing your sky now

YAOGAN 14

Track YAOGAN 14 now!
10-day predictions
YAOGAN 14 is classified as:


NORAD ID: 38257
Int'l Code: 2012-021A
Perigee: 477.7 km
Apogee: 488.2 km
Inclination: 97.3 °
Period: 94.1 minutes
Semi major axis: 6853 km
RCS: 5.8167 m2 (large)
Launch date: May 10, 2012
Source: People's Republic of China (PRC)
Launch site: Taiyaun Space Center, China (TSC)

YAOGAN 14 (Remote Sensing Satellite 14) is an optical reconnaisance satellite.
Your satellite tracking list
Your tracking list is empty





NASA's NSSDC Master Catalog

Two Line Element Set (TLE):
1 38257U 12021A   16151.54117126  .00002389  00000-0  84697-4 0  9992
2 38257  97.2580 282.5527 0007724 258.5353 231.7637 15.30028765226545
Source of the keplerian elements: AFSPC

N2YO: 648